MSR647 HECA-OERK

Flight info

Callsign MSR647
Flight time 2h 8m
Altitude 37000
Route CVO L677 MENLI N697 SISIK W976 TAKSU L550 KARIK B411 DEESA Y415 NIMAR G662 KUNEK
Aircraft B738/M-SDE2E3FGHIRWXY/LB1

Departure

Time 2026-05-04 11:55
Airport Cairo International Airport (HECA)

Arrival

Time 2026-05-04 14:04
Airport King Khalid International Airport (OERK)
Time Latitude Longitude Altitude Speed Heading
2026-05-04 11:31 30.10778 31.39529 369 ft 0 kts 75°
2026-05-04 11:40 30.10771 31.39434 369 ft 4 kts 140°
2026-05-04 11:41 30.10777 31.39428 369 ft 1 kts 165°
2026-05-04 11:45 30.10760 31.39433 369 ft 7 kts 165°
2026-05-04 11:45 30.10680 31.39457 369 ft 17 kts 166°
2026-05-04 11:45 30.10596 31.39529 369 ft 14 kts 77°
2026-05-04 11:45 30.10626 31.39655 369 ft 18 kts 76°
2026-05-04 11:46 30.10640 31.39794 369 ft 18 kts 117°
2026-05-04 11:46 30.10532 31.39848 374 ft 17 kts 163°
2026-05-04 11:46 30.10482 31.39952 378 ft 16 kts 79°
2026-05-04 11:46 30.10551 31.40052 378 ft 16 kts 49°
2026-05-04 11:47 30.10620 31.40147 383 ft 15 kts 53°
2026-05-04 11:47 30.10688 31.40236 386 ft 14 kts 54°
2026-05-04 11:47 30.10671 31.40345 385 ft 15 kts 94°
2026-05-04 11:47 30.10722 31.40440 386 ft 14 kts 49°
2026-05-04 11:48 30.10785 31.40524 387 ft 14 kts 49°
2026-05-04 11:48 30.10846 31.40605 387 ft 13 kts 49°
2026-05-04 11:48 30.10904 31.40683 387 ft 13 kts 49°
2026-05-04 11:48 30.10961 31.40759 387 ft 12 kts 49°
2026-05-04 11:49 30.11017 31.40833 387 ft 12 kts 49°
2026-05-04 11:49 30.11072 31.40908 388 ft 13 kts 50°
2026-05-04 11:49 30.11136 31.40992 388 ft 15 kts 49°
2026-05-04 11:49 30.11209 31.41089 388 ft 17 kts 49°
2026-05-04 11:50 30.11289 31.41196 388 ft 18 kts 50°
2026-05-04 11:50 30.11346 31.41270 388 ft 19 kts 49°
2026-05-04 11:50 30.11432 31.41386 388 ft 20 kts 49°
2026-05-04 11:50 30.11525 31.41508 388 ft 21 kts 49°
2026-05-04 11:51 30.11619 31.41632 388 ft 20 kts 48°
2026-05-04 11:51 30.11716 31.41758 388 ft 21 kts 48°
2026-05-04 11:51 30.11810 31.41885 388 ft 21 kts 49°
2026-05-04 11:51 30.11905 31.42010 388 ft 20 kts 49°
2026-05-04 11:52 30.11997 31.42130 388 ft 20 kts 48°
2026-05-04 11:52 30.12088 31.42252 388 ft 20 kts 49°
2026-05-04 11:52 30.12178 31.42370 388 ft 19 kts 49°
2026-05-04 11:52 30.12267 31.42488 388 ft 20 kts 48°
2026-05-04 11:53 30.12360 31.42610 388 ft 20 kts 49°
2026-05-04 11:53 30.12450 31.42730 388 ft 19 kts 53°
2026-05-04 11:53 30.12459 31.42873 388 ft 19 kts 122°
2026-05-04 11:53 30.12343 31.42919 387 ft 19 kts 200°
2026-05-04 11:55 30.10010 31.39855 962 ft 179 kts 231°
2026-05-04 11:55 30.09160 31.38816 1795 ft 177 kts 221°
2026-05-04 11:56 30.08052 31.38153 2454 ft 192 kts 195°
2026-05-04 11:56 30.06628 31.38205 2727 ft 221 kts 168°
2026-05-04 11:56 30.05072 31.38708 2930 ft 242 kts 165°
2026-05-04 11:56 30.03420 31.39280 3366 ft 252 kts 165°
2026-05-04 11:57 30.01751 31.39941 3994 ft 254 kts 153°
2026-05-04 11:57 30.00511 31.41383 4662 ft 262 kts 122°
2026-05-04 11:57 29.99589 31.43271 5185 ft 276 kts 119°
2026-05-04 11:57 29.98657 31.45248 5931 ft 281 kts 119°
2026-05-04 11:58 29.97720 31.47236 6748 ft 284 kts 119°
2026-05-04 11:58 29.96761 31.49246 7533 ft 288 kts 119°
2026-05-04 11:58 29.95778 31.51279 8333 ft 291 kts 120°
2026-05-04 11:58 29.94783 31.53332 9051 ft 295 kts 120°
2026-05-04 11:59 29.93767 31.55414 9765 ft 300 kts 120°
2026-05-04 11:59 29.92736 31.57519 10386 ft 307 kts 121°
2026-05-04 11:59 29.91641 31.59749 10554 ft 332 kts 121°
2026-05-04 11:59 29.90475 31.62120 10936 ft 347 kts 121°
2026-05-04 12:00 29.89273 31.64564 11560 ft 353 kts 121°
2026-05-04 12:00 29.88055 31.67039 12228 ft 358 kts 122°
2026-05-04 12:00 29.86814 31.69555 12847 ft 364 kts 122°
2026-05-04 12:00 29.85558 31.72103 13565 ft 367 kts 122°
2026-05-04 12:01 29.84291 31.74675 14307 ft 371 kts 122°
2026-05-04 12:01 29.83010 31.77270 15006 ft 375 kts 122°
2026-05-04 12:02 29.76548 31.94264 18906 ft 406 kts 105°
2026-05-04 12:03 29.75879 31.97437 19501 ft 410 kts 105°
2026-05-04 12:03 29.75197 32.00643 20079 ft 415 kts 106°
2026-05-04 12:03 29.74499 32.03879 20649 ft 418 kts 106°
2026-05-04 12:03 29.73785 32.07143 21215 ft 423 kts 106°
2026-05-04 12:04 29.73059 32.10432 21771 ft 426 kts 106°
2026-05-04 12:04 29.72323 32.13748 22281 ft 430 kts 106°
2026-05-04 12:04 29.71576 32.17098 22762 ft 434 kts 106°
2026-05-04 12:04 29.70823 32.20470 23235 ft 438 kts 106°
2026-05-04 12:05 29.70060 32.23881 23721 ft 441 kts 106°
2026-05-04 12:05 29.69294 32.27302 24213 ft 444 kts 106°
2026-05-04 12:05 29.68524 32.30740 24776 ft 444 kts 106°
2026-05-04 12:05 29.67751 32.34185 25243 ft 447 kts 106°
2026-05-04 12:06 29.66970 32.37658 25666 ft 450 kts 106°
2026-05-04 12:06 29.66183 32.41160 26089 ft 453 kts 106°
2026-05-04 12:06 29.65392 32.44670 26527 ft 455 kts 107°
2026-05-04 12:06 29.64640 32.48008 26922 ft 458 kts 107°
2026-05-04 12:07 29.63956 32.51040 27267 ft 460 kts 107°
2026-05-04 12:07 29.63151 32.54598 27658 ft 462 kts 107°
2026-05-04 12:07 29.62340 32.58186 28024 ft 465 kts 107°
2026-05-04 12:07 29.61523 32.61791 28398 ft 467 kts 107°
2026-05-04 12:08 29.60703 32.65402 28763 ft 469 kts 107°
2026-05-04 12:08 29.60054 32.69092 29100 ft 474 kts 98°
2026-05-04 12:08 29.59896 32.72891 29431 ft 477 kts 90°
2026-05-04 12:08 29.59947 32.76702 29791 ft 479 kts 89°
2026-05-04 12:09 29.60030 32.80535 30110 ft 481 kts 89°
2026-05-04 12:09 29.60114 32.84389 30403 ft 483 kts 89°
2026-05-04 12:09 29.60185 32.88253 30692 ft 486 kts 90°
2026-05-04 12:09 29.60242 32.92145 30976 ft 488 kts 90°
2026-05-04 12:10 29.60286 32.96054 31261 ft 490 kts 90°
2026-05-04 12:10 29.60324 32.99980 31526 ft 492 kts 90°
2026-05-04 12:10 29.60357 33.03895 31803 ft 494 kts 90°
2026-05-04 12:10 29.60387 33.07841 32142 ft 493 kts 90°
2026-05-04 12:11 29.60418 33.11730 32488 ft 493 kts 90°
2026-05-04 12:11 29.60449 33.15719 32855 ft 492 kts 90°
2026-05-04 12:11 29.60479 33.19637 33202 ft 491 kts 91°
2026-05-04 12:11 29.60508 33.23555 33553 ft 489 kts 91°
2026-05-04 12:12 29.60535 33.27462 33882 ft 489 kts 91°
2026-05-04 12:12 29.60560 33.31307 34187 ft 488 kts 91°
2026-05-04 12:12 29.60586 33.35213 34498 ft 488 kts 91°
2026-05-04 12:12 29.60610 33.39107 34778 ft 488 kts 91°
2026-05-04 12:13 29.60633 33.43001 35063 ft 487 kts 91°
2026-05-04 12:14 29.60762 33.70409 36382 ft 497 kts 91°
2026-05-04 12:15 29.60777 33.74386 36528 ft 499 kts 91°
2026-05-04 12:15 29.60790 33.78365 36784 ft 497 kts 91°
2026-05-04 12:15 29.60802 33.82326 37056 ft 495 kts 91°
2026-05-04 12:15 29.60804 33.86284 37002 ft 496 kts 91°
2026-05-04 12:16 29.60791 33.94148 37009 ft 487 kts 92°
2026-05-04 12:16 29.60769 34.01904 37029 ft 485 kts 92°
2026-05-04 12:17 29.60748 34.09663 37041 ft 486 kts 92°
2026-05-04 12:17 29.60723 34.17430 37029 ft 486 kts 92°
2026-05-04 12:18 29.60695 34.25205 37031 ft 487 kts 92°
2026-05-04 12:18 29.60701 34.32989 37039 ft 487 kts 91°
2026-05-04 12:19 29.60711 34.40784 37037 ft 488 kts 92°
2026-05-04 12:19 29.60712 34.48588 37039 ft 489 kts 92°
2026-05-04 12:20 29.60567 34.56397 37015 ft 487 kts 104°
2026-05-04 12:20 29.59530 34.60033 37068 ft 475 kts 121°
2026-05-04 12:20 29.57782 34.63215 37029 ft 467 kts 136°
2026-05-04 12:21 29.55476 34.65771 37060 ft 457 kts 147°
2026-05-04 12:21 29.52979 34.68031 37052 ft 457 kts 148°
2026-05-04 12:21 29.47989 34.72604 37047 ft 460 kts 144°
2026-05-04 12:22 29.45782 34.75304 37043 ft 471 kts 129°
2026-05-04 12:22 29.44172 34.78596 37048 ft 479 kts 116°
2026-05-04 12:22 29.43265 34.82244 37053 ft 485 kts 101°
2026-05-04 12:22 29.42819 34.86142 37056 ft 487 kts 99°
2026-05-04 12:23 29.41937 34.93798 37043 ft 489 kts 96°
2026-05-04 12:23 29.42313 35.01591 37043 ft 493 kts 78°
2026-05-04 12:24 29.44109 35.09181 37048 ft 493 kts 74°
2026-05-04 12:24 29.45993 35.16748 37043 ft 493 kts 75°
2026-05-04 12:25 29.47808 35.24335 37037 ft 493 kts 75°
2026-05-04 12:25 29.49584 35.31926 37049 ft 492 kts 75°
2026-05-04 12:26 29.51348 35.39496 37040 ft 491 kts 75°
2026-05-04 12:26 29.53113 35.47065 37042 ft 490 kts 75°
2026-05-04 12:27 29.54881 35.54605 37039 ft 489 kts 75°
2026-05-04 12:27 29.56661 35.62147 37025 ft 489 kts 75°
2026-05-04 12:28 29.58435 35.69701 37040 ft 493 kts 75°
2026-05-04 12:28 29.60232 35.77377 37041 ft 501 kts 75°
2026-05-04 12:29 29.61892 35.85201 37027 ft 506 kts 79°
2026-05-04 12:29 29.63171 35.93158 37032 ft 507 kts 81°
2026-05-04 12:30 29.64409 36.01144 37020 ft 508 kts 81°
2026-05-04 12:30 29.65638 36.08774 37017 ft 507 kts 80°
2026-05-04 12:31 29.66938 36.16731 37016 ft 506 kts 80°
2026-05-04 12:31 29.68229 36.24679 37006 ft 505 kts 80°
2026-05-04 12:32 29.70148 36.36566 37007 ft 503 kts 80°
2026-05-04 12:33 29.71429 36.44469 37010 ft 503 kts 80°
2026-05-04 12:33 29.72715 36.52372 37010 ft 502 kts 80°
2026-05-04 12:34 29.73994 36.60278 36999 ft 502 kts 80°
2026-05-04 12:34 29.74863 36.68169 36984 ft 499 kts 92°
2026-05-04 12:35 29.73942 36.76008 36983 ft 493 kts 106°
2026-05-04 12:35 29.72338 36.83678 36966 ft 493 kts 107°
2026-05-04 12:36 29.70741 36.91359 36964 ft 493 kts 107°
2026-05-04 12:36 29.69439 36.97784 36972 ft 493 kts 106°
2026-05-04 12:37 29.67899 37.05472 36973 ft 493 kts 106°
2026-05-04 12:37 29.66359 37.13149 36974 ft 493 kts 106°
2026-05-04 12:38 29.64824 37.20772 36969 ft 493 kts 106°
2026-05-04 12:38 29.63262 37.28494 36973 ft 493 kts 106°
2026-05-04 12:39 29.61713 37.36117 36967 ft 493 kts 106°
2026-05-04 12:39 29.60151 37.43781 36962 ft 493 kts 107°
2026-05-04 12:40 29.58589 37.51423 36962 ft 493 kts 107°
2026-05-04 12:40 29.57019 37.59087 36960 ft 492 kts 107°
2026-05-04 12:41 29.55448 37.66736 36967 ft 492 kts 107°
2026-05-04 12:41 29.53868 37.74390 36961 ft 493 kts 107°
2026-05-04 12:42 29.52286 37.82039 36964 ft 493 kts 107°
2026-05-04 12:42 29.50699 37.89690 36962 ft 492 kts 107°
2026-05-04 12:43 29.49108 37.97337 36960 ft 493 kts 107°
2026-05-04 12:43 29.47606 38.05014 36965 ft 493 kts 105°
2026-05-04 12:44 29.46272 38.12730 36961 ft 493 kts 104°
2026-05-04 12:44 29.44937 38.20454 36971 ft 493 kts 104°
2026-05-04 12:45 29.43572 38.28161 36974 ft 493 kts 105°
2026-05-04 12:45 29.42191 38.35865 36972 ft 493 kts 105°
2026-05-04 12:46 29.40804 38.43567 36973 ft 493 kts 105°
2026-05-04 12:46 29.39413 38.51273 36979 ft 493 kts 105°
2026-05-04 12:47 29.38019 38.58975 36983 ft 493 kts 105°
2026-05-04 12:47 29.36620 38.66677 36986 ft 494 kts 105°
2026-05-04 12:48 29.35216 38.74380 36981 ft 494 kts 105°
2026-05-04 12:48 29.33819 38.82016 36986 ft 494 kts 105°
2026-05-04 12:49 29.32407 38.89719 36979 ft 494 kts 105°
2026-05-04 12:49 29.30883 38.97386 36984 ft 493 kts 107°
2026-05-04 12:50 29.29255 39.05018 36983 ft 493 kts 107°
2026-05-04 12:50 29.27630 39.12643 36981 ft 493 kts 107°
2026-05-04 12:51 29.26022 39.20270 36983 ft 493 kts 107°
2026-05-04 12:51 29.24416 39.27903 36988 ft 493 kts 107°
2026-05-04 12:52 29.22805 39.35528 36995 ft 493 kts 107°
2026-05-04 12:52 29.21188 39.43158 36990 ft 493 kts 107°
2026-05-04 12:53 29.19566 39.50781 36993 ft 493 kts 108°
2026-05-04 12:53 29.17939 39.58409 36990 ft 493 kts 108°
2026-05-04 12:54 29.16309 39.66029 36990 ft 493 kts 108°
2026-05-04 12:54 29.14673 39.73654 36990 ft 494 kts 108°
2026-05-04 12:55 29.13034 39.81279 36993 ft 494 kts 108°
2026-05-04 12:55 29.10984 39.88716 36985 ft 486 kts 122°
2026-05-04 12:56 29.07210 39.94956 36985 ft 472 kts 141°
2026-05-04 12:56 29.02450 40.00058 36987 ft 469 kts 143°
2026-05-04 12:57 28.97646 40.05101 36987 ft 469 kts 143°
2026-05-04 12:57 28.93855 40.09129 36989 ft 469 kts 143°
2026-05-04 12:58 28.89084 40.14228 36988 ft 470 kts 142°
2026-05-04 12:58 28.84313 40.19335 36979 ft 470 kts 142°
2026-05-04 12:59 28.79545 40.24433 36983 ft 470 kts 142°
2026-05-04 12:59 28.74805 40.29495 36978 ft 470 kts 142°
2026-05-04 13:00 28.70029 40.34590 36974 ft 471 kts 142°
2026-05-04 13:00 28.65245 40.39686 36967 ft 471 kts 142°
2026-05-04 13:01 28.60458 40.44778 36975 ft 471 kts 142°
2026-05-04 13:01 28.55671 40.49862 36971 ft 471 kts 142°
2026-05-04 13:02 28.50874 40.54951 36972 ft 471 kts 143°
2026-05-04 13:02 28.46080 40.60029 36973 ft 471 kts 143°
2026-05-04 13:03 28.41284 40.65103 36973 ft 471 kts 143°
2026-05-04 13:03 28.36485 40.70176 36976 ft 471 kts 143°
2026-05-04 13:04 28.31685 40.75242 36966 ft 471 kts 143°
2026-05-04 13:04 28.26890 40.80296 36970 ft 471 kts 143°
2026-05-04 13:05 28.22093 40.85346 36955 ft 471 kts 143°
2026-05-04 13:05 28.17900 40.89756 36953 ft 471 kts 143°
2026-05-04 13:06 28.13101 40.94794 36955 ft 471 kts 143°
2026-05-04 13:06 28.08294 40.99836 36967 ft 470 kts 143°
2026-05-04 13:07 28.03491 41.04866 36964 ft 471 kts 143°
2026-05-04 13:07 27.98678 41.09901 36967 ft 471 kts 143°
2026-05-04 13:08 27.93865 41.14933 36957 ft 471 kts 143°
2026-05-04 13:08 27.89084 41.19922 36959 ft 471 kts 143°
2026-05-04 13:09 27.84245 41.24971 36964 ft 470 kts 143°
2026-05-04 13:09 27.79435 41.29987 36959 ft 470 kts 143°
2026-05-04 13:10 27.74658 41.34964 36963 ft 470 kts 143°
2026-05-04 13:10 27.69856 41.39959 36963 ft 470 kts 143°
2026-05-04 13:11 27.65046 41.44957 36963 ft 470 kts 143°
2026-05-04 13:11 27.60233 41.49951 36964 ft 470 kts 143°
2026-05-04 13:12 27.55417 41.54941 36960 ft 470 kts 143°
2026-05-04 13:12 27.50599 41.59929 36961 ft 470 kts 143°
2026-05-04 13:13 27.45789 41.64902 36961 ft 469 kts 143°
2026-05-04 13:13 27.41321 41.70322 36954 ft 480 kts 128°
2026-05-04 13:14 27.37900 41.76801 36960 ft 483 kts 125°
2026-05-04 13:14 27.34552 41.83358 36963 ft 483 kts 125°
2026-05-04 13:15 27.31163 41.89873 36962 ft 483 kts 126°
2026-05-04 13:15 27.27739 41.96375 36961 ft 483 kts 126°
2026-05-04 13:16 27.24304 42.02874 36965 ft 483 kts 126°
2026-05-04 13:16 27.20875 42.09356 36961 ft 483 kts 126°
2026-05-04 13:17 27.17445 42.15840 36961 ft 483 kts 126°
2026-05-04 13:17 27.14013 42.22314 36959 ft 483 kts 126°
2026-05-04 13:18 27.10600 42.28746 36959 ft 483 kts 126°
2026-05-04 13:18 27.07136 42.35257 36949 ft 482 kts 126°
2026-05-04 13:19 27.03686 42.41709 36940 ft 482 kts 126°
2026-05-04 13:19 27.00255 42.48116 36947 ft 482 kts 126°
2026-05-04 13:20 26.96805 42.54551 36933 ft 482 kts 126°
2026-05-04 13:20 26.93350 42.60990 36934 ft 481 kts 126°
2026-05-04 13:21 26.89899 42.67412 36923 ft 481 kts 126°
2026-05-04 13:21 26.86445 42.73829 36929 ft 481 kts 126°
2026-05-04 13:22 26.82997 42.80227 36918 ft 481 kts 126°
2026-05-04 13:22 26.79536 42.86639 36908 ft 480 kts 126°
2026-05-04 13:23 26.76076 42.93040 36909 ft 481 kts 126°
2026-05-04 13:23 26.73195 42.98364 36911 ft 481 kts 126°
2026-05-04 13:24 26.69729 43.04761 36909 ft 481 kts 126°
2026-05-04 13:24 26.66263 43.11151 36905 ft 481 kts 126°
2026-05-04 13:25 26.61062 43.20728 36899 ft 480 kts 126°
2026-05-04 13:25 26.57597 43.27108 36894 ft 480 kts 126°
2026-05-04 13:26 26.54133 43.33482 36884 ft 480 kts 126°
2026-05-04 13:26 26.50667 43.39849 36887 ft 480 kts 126°
2026-05-04 13:27 26.47198 43.46214 36886 ft 480 kts 125°
2026-05-04 13:27 26.43724 43.52576 36888 ft 480 kts 126°
2026-05-04 13:28 26.40249 43.58933 36891 ft 480 kts 125°
2026-05-04 13:28 26.36779 43.65272 36887 ft 480 kts 126°
2026-05-04 13:29 26.33310 43.71603 36884 ft 479 kts 125°
2026-05-04 13:29 26.29837 43.77941 36889 ft 480 kts 124°
2026-05-04 13:30 26.26695 43.84479 36894 ft 482 kts 120°
2026-05-04 13:30 26.23697 43.91161 36890 ft 482 kts 120°
2026-05-04 13:31 26.20688 43.97821 36885 ft 481 kts 121°
2026-05-04 13:31 26.17684 44.04375 36889 ft 481 kts 121°
2026-05-04 13:32 26.14685 44.10875 36889 ft 481 kts 121°
2026-05-04 13:32 26.11717 44.17295 36886 ft 481 kts 121°
2026-05-04 13:33 26.08736 44.23739 36887 ft 481 kts 121°
2026-05-04 13:33 26.05676 44.30348 36891 ft 480 kts 121°
2026-05-04 13:34 26.02987 44.36147 36892 ft 481 kts 121°
2026-05-04 13:34 26.00012 44.42554 36889 ft 481 kts 121°
2026-05-04 13:35 25.95705 44.51829 36866 ft 448 kts 121°
2026-05-04 13:35 25.94345 44.54753 36866 ft 435 kts 121°
2026-05-04 13:36 25.93007 44.57627 36868 ft 422 kts 121°
2026-05-04 13:36 25.91726 44.60372 36739 ft 414 kts 121°
2026-05-04 13:36 25.90481 44.63030 35959 ft 422 kts 121°
2026-05-04 13:36 25.89252 44.65648 34729 ft 442 kts 121°
2026-05-04 13:37 25.88087 44.68127 33571 ft 462 kts 121°
2026-05-04 13:37 25.86843 44.70790 32790 ft 470 kts 120°
2026-05-04 13:37 25.85546 44.73572 32325 ft 469 kts 120°
2026-05-04 13:37 25.84280 44.76279 32002 ft 463 kts 121°
2026-05-04 13:38 25.82821 44.79387 31634 ft 458 kts 121°
2026-05-04 13:38 25.81563 44.82064 31284 ft 453 kts 120°
2026-05-04 13:38 25.80306 44.84741 30901 ft 451 kts 120°
2026-05-04 13:38 25.79003 44.87509 30471 ft 448 kts 120°
2026-05-04 13:39 25.77747 44.90185 30061 ft 446 kts 120°
2026-05-04 13:39 25.76582 44.92661 29605 ft 445 kts 120°
2026-05-04 13:39 25.75640 44.94660 29017 ft 450 kts 120°
2026-05-04 13:39 25.74473 44.97135 28644 ft 447 kts 120°
2026-05-04 13:40 25.73498 44.99204 28411 ft 441 kts 120°
2026-05-04 13:40 25.72394 45.01545 28027 ft 439 kts 120°
2026-05-04 13:40 25.71103 45.04282 27575 ft 436 kts 120°
2026-05-04 13:40 25.70121 45.06364 27258 ft 433 kts 120°
2026-05-04 13:41 25.68899 45.08954 26879 ft 429 kts 120°
2026-05-04 13:41 25.67699 45.11494 26472 ft 426 kts 120°
2026-05-04 13:41 25.66630 45.13757 26126 ft 423 kts 120°
2026-05-04 13:42 25.63932 45.19453 25252 ft 416 kts 120°
2026-05-04 13:42 25.62896 45.21639 24932 ft 412 kts 119°
2026-05-04 13:42 25.61742 45.24070 24550 ft 409 kts 119°
2026-05-04 13:42 25.60467 45.26758 24127 ft 406 kts 119°
2026-05-04 13:43 25.59251 45.29321 23738 ft 403 kts 119°
2026-05-04 13:43 25.58263 45.31402 23429 ft 400 kts 119°
2026-05-04 13:43 25.57322 45.33384 23125 ft 397 kts 119°
2026-05-04 13:43 25.56300 45.35535 22779 ft 395 kts 119°
2026-05-04 13:44 25.55085 45.38090 22379 ft 392 kts 119°
2026-05-04 13:44 25.53827 45.40739 21985 ft 388 kts 119°
2026-05-04 13:44 25.52666 45.43180 21586 ft 386 kts 119°
2026-05-04 13:44 25.51618 45.45381 21245 ft 383 kts 119°
2026-05-04 13:45 25.50537 45.47652 20894 ft 381 kts 119°
2026-05-04 13:45 25.49500 45.49828 20563 ft 378 kts 119°
2026-05-04 13:45 25.48299 45.52347 20165 ft 375 kts 119°
2026-05-04 13:45 25.47511 45.53996 19901 ft 373 kts 119°
2026-05-04 13:46 25.46330 45.56466 19520 ft 371 kts 119°
2026-05-04 13:46 25.45308 45.58608 19178 ft 369 kts 119°
2026-05-04 13:46 25.44355 45.60604 18866 ft 366 kts 119°
2026-05-04 13:46 25.43500 45.62396 18579 ft 365 kts 119°
2026-05-04 13:47 25.42467 45.64556 18239 ft 362 kts 119°
2026-05-04 13:47 25.41485 45.66610 17916 ft 360 kts 119°
2026-05-04 13:47 25.40545 45.68576 17601 ft 358 kts 119°
2026-05-04 13:47 25.39666 45.70415 17299 ft 356 kts 119°
2026-05-04 13:48 25.38749 45.72331 16995 ft 354 kts 119°
2026-05-04 13:48 25.37716 45.74489 16666 ft 351 kts 119°
2026-05-04 13:48 25.36687 45.76636 16312 ft 349 kts 119°
2026-05-04 13:48 25.35631 45.78839 15958 ft 346 kts 118°
2026-05-04 13:49 25.34563 45.81213 15589 ft 344 kts 116°
2026-05-04 13:49 25.33550 45.83604 15216 ft 341 kts 116°
2026-05-04 13:49 25.32589 45.85903 14854 ft 339 kts 115°
2026-05-04 13:49 25.31604 45.88264 14488 ft 336 kts 116°
2026-05-04 13:50 25.30624 45.90596 14172 ft 332 kts 116°
2026-05-04 13:50 25.29653 45.92894 13864 ft 328 kts 116°
2026-05-04 13:50 25.28688 45.95173 13491 ft 327 kts 116°
2026-05-04 13:50 25.27728 45.97442 13138 ft 325 kts 116°
2026-05-04 13:51 25.26782 45.99662 12787 ft 323 kts 116°
2026-05-04 13:51 25.25832 46.01889 12440 ft 320 kts 115°
2026-05-04 13:51 25.24885 46.04116 12066 ft 319 kts 115°
2026-05-04 13:51 25.23945 46.06327 11700 ft 317 kts 115°
2026-05-04 13:52 25.22072 46.10710 10979 ft 315 kts 115°
2026-05-04 13:52 25.21139 46.12892 10621 ft 313 kts 115°
2026-05-04 13:52 25.20214 46.15056 10381 ft 308 kts 115°
2026-05-04 13:53 25.19315 46.17156 10237 ft 298 kts 115°
2026-05-04 13:53 25.18442 46.19199 10110 ft 289 kts 115°
2026-05-04 13:53 25.17600 46.21171 9951 ft 281 kts 115°
2026-05-04 13:54 25.15943 46.25040 9391 ft 278 kts 115°
2026-05-04 13:54 25.15121 46.26966 9095 ft 276 kts 113°
2026-05-04 13:54 25.15062 46.31069 8538 ft 272 kts 75°
2026-05-04 13:55 25.15572 46.33063 8342 ft 267 kts 73°
2026-05-04 13:55 25.16581 46.36826 8053 ft 243 kts 73°
2026-05-04 13:55 25.17068 46.38637 7436 ft 253 kts 73°
2026-05-04 13:56 25.17576 46.40521 6825 ft 259 kts 73°
2026-05-04 13:56 25.18077 46.42374 6568 ft 247 kts 73°
2026-05-04 13:56 25.19000 46.45757 6318 ft 217 kts 73°
2026-05-04 13:57 25.19378 46.47343 6236 ft 213 kts 84°
2026-05-04 13:57 25.19455 46.48964 6191 ft 211 kts 88°
2026-05-04 13:58 25.18547 46.53695 5368 ft 219 kts 140°
2026-05-04 13:58 25.16087 46.55480 5044 ft 210 kts 150°
2026-05-04 13:58 25.14818 46.56278 5011 ft 210 kts 150°
2026-05-04 13:59 25.13552 46.57075 5009 ft 209 kts 150°
2026-05-04 13:59 25.12290 46.57873 5007 ft 210 kts 150°
2026-05-04 13:59 25.09808 46.59443 4926 ft 197 kts 150°
2026-05-04 14:00 25.08641 46.60183 4672 ft 194 kts 150°
2026-05-04 14:00 25.06429 46.61579 4229 ft 169 kts 149°
2026-05-04 14:00 25.05439 46.62207 3975 ft 162 kts 150°
2026-05-04 14:01 25.04467 46.62823 3770 ft 161 kts 150°
2026-05-04 14:01 25.03509 46.63429 3557 ft 161 kts 150°
2026-05-04 14:01 25.01568 46.64657 3131 ft 160 kts 150°
2026-05-04 14:02 25.00601 46.65269 2915 ft 160 kts 150°
2026-05-04 14:02 24.99707 46.65835 2731 ft 159 kts 150°
2026-05-04 14:02 24.99061 46.66244 2572 ft 158 kts 150°
2026-05-04 14:02 24.97981 46.66927 2339 ft 158 kts 150°
2026-05-04 14:03 24.97026 46.67542 2067 ft 158 kts 150°
2026-05-04 14:03 24.96189 46.68061 2031 ft 140 kts 149°
2026-05-04 14:03 24.95702 46.68370 2028 ft 108 kts 150°
2026-05-04 14:03 24.95187 46.68696 2029 ft 60 kts 150°
2026-05-04 14:04 24.94971 46.69069 2033 ft 14 kts 69°
2026-05-04 14:04 24.94981 46.69163 2034 ft 13 kts 127°
2026-05-04 14:04 24.94907 46.69217 2033 ft 13 kts 154°
2026-05-04 14:05 24.94757 46.69311 2029 ft 12 kts 150°
2026-05-04 14:05 24.94685 46.69356 2030 ft 12 kts 150°
2026-05-04 14:05 24.94615 46.69400 2035 ft 11 kts 150°
2026-05-04 14:06 24.94547 46.69443 2033 ft 11 kts 147°
2026-05-04 14:06 24.94515 46.69514 2030 ft 11 kts 81°
2026-05-04 14:06 24.94547 46.69587 2030 ft 11 kts 60°
2026-05-04 14:06 24.94583 46.69657 2036 ft 10 kts 60°
2026-05-04 14:07 24.94617 46.69724 2040 ft 10 kts 60°
2026-05-04 14:07 24.94651 46.69789 2034 ft 10 kts 60°
2026-05-04 14:07 24.94686 46.69851 2037 ft 9 kts 57°
2026-05-04 14:07 24.94719 46.69913 2034 ft 9 kts 59°
2026-05-04 14:08 24.94751 46.69972 2030 ft 9 kts 59°
2026-05-04 14:08 24.94782 46.70031 2030 ft 9 kts 60°
2026-05-04 14:08 24.94810 46.70087 2036 ft 8 kts 61°
2026-05-04 14:08 24.94839 46.70142 2030 ft 8 kts 60°
2026-05-04 14:09 24.94897 46.70251 2036 ft 8 kts 60°
2026-05-04 14:09 24.94925 46.70305 2031 ft 8 kts 59°
2026-05-04 14:10 24.94987 46.70423 2030 ft 10 kts 60°
2026-05-04 14:10 24.95022 46.70490 2034 ft 10 kts 60°
2026-05-04 14:10 24.95059 46.70560 2036 ft 11 kts 60°
2026-05-04 14:10 24.95099 46.70635 2034 ft 12 kts 60°
2026-05-04 14:11 24.95141 46.70715 2035 ft 12 kts 60°
2026-05-04 14:11 24.95193 46.70860 2034 ft 13 kts 105°
2026-05-04 14:11 24.95122 46.70912 2034 ft 12 kts 151°
2026-05-04 14:12 24.95048 46.70959 2037 ft 12 kts 150°
2026-05-04 14:12 24.94975 46.71005 2038 ft 12 kts 150°
2026-05-04 14:12 24.94835 46.71093 2033 ft 11 kts 150°
2026-05-04 14:13 24.94768 46.71136 2036 ft 11 kts 150°
2026-05-04 14:13 24.94701 46.71179 2038 ft 12 kts 150°
2026-05-04 14:13 24.94627 46.71226 2035 ft 13 kts 150°
2026-05-04 14:13 24.94550 46.71273 2036 ft 10 kts 155°
2026-05-04 14:14 24.94527 46.71261 2035 ft 4 kts 233°
2026-05-04 14:14 24.94498 46.71204 2038 ft 4 kts 240°
2026-05-04 14:14 24.94484 46.71177 2035 ft 2 kts 240°